Weather History for KNYC - January, 2013

Change the Weather History Date:

Sunday, January 27, 2013

  Actual Average Record
Temperature  
Mean Temperature 27 °F 33 °F  
Max Temperature 34 °F 39 °F 69 °F (1916)
Min Temperature 19 °F 27 °F -1 °F (1927)
Degree Days  
Heating Degree Days 38 32  
Month to date heating degree days 830 879  
Since 1 July heating degree days 2420 2564  
Cooling Degree Days 0 0  
Month to date cooling degree days 0 0  
Year to date cooling degree days 0 0  
Moisture  
Dew Point 8 °F    
Average Humidity 50    
Maximum Humidity 67    
Minimum Humidity 33    
Precipitation  
Precipitation 0.00 in 0.11 in 1.94 in (1976)
Month to date precipitation 1.54 3.20  
Year to date precipitation 1.54 3.20  
Snow  
Snow 0.00 in 0.20 in 6.70 in (2011)
Month to date snowfall 1.5 5.9  
Since 1 July snowfall 6.6 11.0  
Snow Depth 1.00 in    
Sea Level Pressure  
Sea Level Pressure 30.46 in    
Wind  
Wind Speed 6 mph (WNW)    
Max Wind Speed 14 mph    
Max Gust Speed 21 mph    
Visibility 10 miles    
Events      
T = Trace of Precipitation, MM = Missing Value Source: NWS Daily Summary

Daily Weather History Graph

Daily Weather History Graph

Search for Another Location

Airport or City:

Trip Planner

Search our weather history database for the weather conditions in past years. The results will help you decide how hot, cold, wet, or windy it might be!

Date:

Astronomy

Jan. 27, 2013 Rise Set
Actual Time 7:10 AM EST 5:07 PM EST
Civil Twilight 6:40 AM EST 5:36 PM EST
Nautical Twilight 6:07 AM EST 6:09 PM EST
Astronomical Twilight 5:35 AM EST 6:42 PM EST
Moon 5:59 PM EST (1/27) 7:01 AM EST (1/27)
Length of Visible Light 10h 55m
Length of Day
9h 57m
Full, 100% of the Moon is Illuminated
Jan 27
Full
Feb 3
Last Quarter
Feb 10
New
Feb 17
First Quarter
Feb 25
Full

Hourly Weather History & Observations

Time (EST) Temp. Windchill Dew Point Humidity Pressure Visibility Wind Dir Wind Speed Gust Speed Precip Events Conditions
12:51 AM 19.9 °F 11.1 °F 6.1 °F 55% 30.38 in 10.0 mi NW 6.9 mph - N/A   Clear
1:51 AM 19.9 °F 11.1 °F 7.0 °F 57% 30.40 in 10.0 mi West 6.9 mph - N/A   Clear
2:51 AM 19.9 °F 9.3 °F 7.0 °F 57% 30.40 in 10.0 mi WNW 9.2 mph 16.1 mph N/A   Clear
3:51 AM 19.0 °F 11.1 °F 8.1 °F 62% 30.42 in 10.0 mi West 5.8 mph - N/A   Clear
4:51 AM 19.0 °F 9.0 °F 9.0 °F 65% 30.42 in 10.0 mi West 8.1 mph - N/A   Clear
5:51 AM 19.0 °F 12.3 °F 10.0 °F 68% 30.43 in 10.0 mi Variable 4.6 mph - N/A   Clear
6:51 AM 19.9 °F 13.4 °F 10.0 °F 65% 30.44 in 10.0 mi Variable 4.6 mph 17.3 mph N/A   Clear
7:51 AM 19.9 °F 7.9 °F 9.0 °F 62% 30.46 in 10.0 mi WNW 11.5 mph 17.3 mph N/A   Clear
8:51 AM 21.9 °F 15.7 °F 10.0 °F 60% 30.48 in 10.0 mi Variable 4.6 mph - N/A   Clear
9:51 AM 24.1 °F 16.0 °F 9.0 °F 53% 30.50 in 10.0 mi Variable 6.9 mph 18.4 mph N/A   Clear
10:51 AM 27.0 °F 20.5 °F 8.1 °F 45% 30.52 in 10.0 mi Variable 5.8 mph - N/A   Clear
11:51 AM 28.0 °F - 7.0 °F 41% 30.49 in 10.0 mi Calm Calm - N/A   Clear
12:51 PM 30.9 °F 26.2 °F 6.1 °F 35% 30.47 in 10.0 mi WNW 4.6 mph - N/A   Clear
1:51 PM 32.0 °F 27.5 °F 6.1 °F 34% 30.45 in 10.0 mi Variable 4.6 mph - N/A   Clear
2:51 PM 33.1 °F 27.7 °F 8.1 °F 35% 30.45 in 10.0 mi Variable 5.8 mph - N/A   Clear
3:51 PM 33.1 °F 24.9 °F 8.1 °F 35% 30.46 in 10.0 mi WNW 10.4 mph - N/A   Clear
4:51 PM 33.1 °F 25.5 °F 8.1 °F 35% 30.48 in 10.0 mi West 9.2 mph - N/A   Clear
5:51 PM 32.0 °F 27.5 °F 9.0 °F 38% 30.49 in 10.0 mi WNW 4.6 mph - N/A   Clear
6:51 PM 32.0 °F 28.7 °F 10.0 °F 40% 30.50 in 10.0 mi WNW 3.5 mph - N/A   Clear
7:51 PM 32.0 °F 24.8 °F 9.0 °F 38% 30.49 in 10.0 mi WNW 8.1 mph - N/A   Clear
8:51 PM 30.9 °F 27.5 °F 10.0 °F 42% 30.49 in 10.0 mi WNW 3.5 mph - N/A   Clear
9:51 PM 30.9 °F 25.2 °F 9.0 °F 40% 30.50 in 10.0 mi Variable 5.8 mph - N/A   Clear
10:51 PM 28.9 °F 25.2 °F 9.0 °F 43% 30.48 in 10.0 mi Variable 3.5 mph - N/A   Clear
11:51 PM 28.9 °F - 9.0 °F 43% 30.48 in 10.0 mi Calm Calm - N/A   Clear